Eagle, AK

3:48 PM AKST on December 16, 2017 (GMT -0900)
Eagle

Weather History for PAEG - August, 2012

Change the Weather History Date:

Friday, August 24, 2012

  Actual Average (PABN) Record (PABN)
Temperature  
Mean Temperature 60 °F -  
Max Temperature 72 °F 53 °F 64 °F (2004)
Min Temperature 50 °F 42 °F 37 °F (2006)
Degree Days  
Heating Degree Days 4    
Growing Degree Days 10 (Base 50)    
Moisture  
Dew Point 49 °F    
Average Humidity 72    
Maximum Humidity 96    
Minimum Humidity 34    
Precipitation  
Precipitation 0.00 in - - ()
Sea Level Pressure  
Sea Level Pressure 29.73 in    
Wind  
Wind Speed 2 mph (SSE)    
Max Wind Speed 9 mph    
Max Gust Speed 18 mph    
Visibility 10 miles    
Events Rain    
Averages and records for this station are not official NWS values.
T = Trace of Precipitation, MM = Missing Value Source: NWS Daily Summary

Daily Weather History Graph

Daily Weather History Graph

Search for Another Location

Airport or City:

Trip Planner

Search our weather history database for the weather conditions in past years. The results will help you decide how hot, cold, wet, or windy it might be!

Date:

Astronomy

Aug. 24, 2012 Rise Set
Actual Time 5:42 AM AKDT 9:09 PM AKDT
Civil Twilight 4:42 AM AKDT 10:07 PM AKDT
Nautical Twilight 3:07 AM AKDT 11:39 PM AKDT
Astronomical Twilight Sun does not rise Sun does not rise
Moon 5:17 PM AKDT (8/24) 10:05 PM AKDT (8/24)
Length of Visible Light 17h 25m
Length of Day
15h 26m
First Quarter, 53% of the Moon is Illuminated
Aug 24
First Quarter
Aug 31
Full
Sep 8
Last Quarter
Sep 15
New
Sep 22
First Quarter

Hourly Weather History & Observations

Time (AKDT) Temp. Dew Point Humidity Pressure Visibility Wind Dir Wind Speed Gust Speed Precip Events Conditions
12:53 AM 51.1 °F 45.0 °F 80% 29.73 in 10.0 mi Calm Calm - N/A   Scattered Clouds
1:53 AM 51.1 °F 45.0 °F 80% 29.74 in 10.0 mi Calm Calm - N/A   Partly Cloudy
2:53 AM 50.0 °F 46.0 °F 86% 29.76 in 10.0 mi Calm Calm - N/A   Overcast
3:53 AM 51.1 °F 48.0 °F 89% 29.76 in 10.0 mi SSE 3.5 mph - 0.00 in Rain Light Rain
4:53 AM 51.1 °F 48.9 °F 92% 29.78 in 7.0 mi Calm Calm - 0.00 in Rain Light Rain
5:53 AM 51.1 °F 50.0 °F 96% 29.77 in 10.0 mi Calm Calm - 0.00 in Rain Light Rain
6:53 AM 51.1 °F 50.0 °F 96% 29.78 in 10.0 mi Calm Calm - 0.00 in   Overcast
7:53 AM 54.0 °F 52.0 °F 93% 29.78 in 10.0 mi Calm Calm - N/A   Mostly Cloudy
8:53 AM 55.9 °F 53.1 °F 90% 29.78 in 10.0 mi Calm Calm - N/A   Scattered Clouds
9:53 AM 57.9 °F 54.0 °F 87% 29.78 in 10.0 mi Calm Calm - N/A   Overcast
10:53 AM 62.1 °F 55.0 °F 78% 29.77 in 10.0 mi Calm Calm - N/A   Partly Cloudy
11:53 AM 64.0 °F 54.0 °F 70% 29.76 in 10.0 mi Variable 5.8 mph - N/A   Partly Cloudy
12:53 PM 66.0 °F 54.0 °F 65% 29.74 in 10.0 mi Variable 5.8 mph - N/A   Partly Cloudy
1:53 PM 68.0 °F 51.1 °F 55% 29.72 in 10.0 mi East 9.2 mph 16.1 mph N/A   Clear
2:53 PM 71.1 °F 41.0 °F 34% 29.69 in 10.0 mi South 9.2 mph - N/A   Overcast
3:53 PM 69.1 °F 41.0 °F 36% 29.69 in 10.0 mi South 4.6 mph - N/A   Overcast
4:53 PM 68.0 °F 42.1 °F 39% 29.68 in 10.0 mi SSE 5.8 mph - N/A   Overcast
5:53 PM 70.0 °F 42.1 °F 36% 29.67 in 10.0 mi SSE 8.1 mph 18.4 mph N/A   Overcast
6:53 PM 66.0 °F 48.9 °F 54% 29.67 in 10.0 mi SE 6.9 mph - N/A   Overcast
7:53 PM 64.0 °F 46.9 °F 54% 29.68 in 10.0 mi Calm Calm - N/A   Overcast
8:53 PM 61.0 °F 50.0 °F 67% 29.68 in 10.0 mi Calm Calm - N/A   Overcast
9:53 PM 57.0 °F 48.0 °F 72% 29.69 in 10.0 mi Calm Calm - N/A   Overcast
10:53 PM 55.0 °F 50.0 °F 83% 29.72 in 10.0 mi SSE 3.5 mph - 0.00 in Rain Light Rain
11:53 PM 53.1 °F 50.0 °F 89% 29.74 in 10.0 mi Calm Calm - 0.00 in   Overcast